This is the latest recevied weather packets stored in our database for station/object AE5HO. If no packets are shown the sender has not sent any weather packets the latest 10 day(s).
| Time | Temp. | Humidity | Pressure | Rain* | Wind** | Luminosity | Snow |
|---|---|---|---|---|---|---|---|
| 1787434183 | 38.33° C | 43% | 1014.5 hPa | 0 mm | - | 104 W/m² | - |
| 1787433879 | 38.33° C | 43% | 1014.6 hPa | 0 mm | - | 93 W/m² | - |
| 1787433573 | 38.33° C | 44% | 1014.6 hPa | 0 mm | - | 86 W/m² | - |
| 1787433268 | 38.33° C | 43% | 1014.9 hPa | 0 mm | - | 95 W/m² | - |
| 1787432966 | 38.89° C | 43% | 1014.9 hPa | 0 mm | - | 110 W/m² | - |
| 1787432661 | 38.33° C | 43% | 1015 hPa | 0 mm | - | 105 W/m² | - |
| 1787432360 | 37.78° C | 45% | 1015 hPa | 0 mm | - | 92 W/m² | - |
| 1787432056 | 37.22° C | 44% | 1015.2 hPa | 0 mm | - | 84 W/m² | - |
| 1787431755 | 37.22° C | 44% | 1015.3 hPa | 0 mm | - | 82 W/m² | - |
| 1787431450 | 37.78° C | 45% | 1015.5 hPa | 0 mm | - | 91 W/m² | - |
| 1787431146 | 37.22° C | 45% | 1015.6 hPa | 0 mm | - | 86 W/m² | - |
| 1787430842 | 37.22° C | 45% | 1015.9 hPa | 0 mm | - | 88 W/m² | - |
| 1787430537 | 37.22° C | 46% | 1015.7 hPa | 0 mm | - | 103 W/m² | - |
| 1787430235 | 37.22° C | 45% | 1015.9 hPa | 0 mm | - | 113 W/m² | - |
| 1787429931 | 37.22° C | 45% | 1015.8 hPa | 0 mm | - | 121 W/m² | - |
| 1787429630 | 37.22° C | 45% | 1016.1 hPa | 0 mm | - | 127 W/m² | - |
| 1787429326 | 37.22° C | 45% | 1016.2 hPa | 0 mm | - | 128 W/m² | - |
| 1787429022 | 37.22° C | 45% | 1016.2 hPa | 0 mm | - | 126 W/m² | - |
| 1787428717 | 37.22° C | 45% | 1016 hPa | 0 mm | - | 126 W/m² | - |
| 1787428413 | 37.22° C | 45% | 1016.3 hPa | 0 mm | - | 126 W/m² | - |
| 1787428113 | 37.22° C | 45% | 1016.2 hPa | 0 mm | - | 126 W/m² | - |
| 1787427808 | 37.22° C | 45% | 1016.2 hPa | 0 mm | - | 132 W/m² | - |
| 1787427504 | 37.22° C | 45% | 1016.5 hPa | 0 mm | - | 146 W/m² | - |
| 1787427201 | 37.22° C | 47% | 1016.4 hPa | 0 mm | - | 152 W/m² | - |
| 1787426901 | 36.67° C | 47% | 1016.4 hPa | 0 mm | - | 148 W/m² | - |
* Rain latest hour (hover to see other rain measurements)
** Current wind speed in m/s (hover to see current wind gust speed)